This is the latest recevied weather packets stored in our database for station/object EA1FLU-10. If no packets are shown the sender has not sent any weather packets the latest 10 day(s).
| Time | Temp. | Humidity | Pressure | Rain* | Wind** | Luminosity | Snow |
|---|---|---|---|---|---|---|---|
| 1777513528 | 15.56° C | 59% | 1018.9 hPa | - | - | - | - |
| 1777511728 | 15.56° C | 59% | 1018.8 hPa | - | - | - | - |
| 1777509928 | 15.56° C | 59% | 1018.7 hPa | - | - | - | - |
| 1777508128 | 15.56° C | 59% | 1018.3 hPa | - | - | - | - |
| 1777506328 | 16.11° C | 59% | 1018 hPa | - | - | - | - |
| 1777504528 | 16.11° C | 58% | 1017.9 hPa | - | - | - | - |
| 1777502728 | 16.11° C | 58% | 1017.7 hPa | - | - | - | - |
| 1777500928 | 16.67° C | 58% | 1017.4 hPa | - | - | - | - |
| 1777499130 | 16.67° C | 58% | 1017.5 hPa | - | - | - | - |
| 1777497328 | 17.22° C | 57% | 1017.1 hPa | - | - | - | - |
| 1777495528 | 17.78° C | 57% | 1016.5 hPa | - | - | - | - |
| 1777493727 | 17.78° C | 57% | 1016 hPa | - | - | - | - |
| 1777491927 | 18.89° C | 58% | 1015.5 hPa | - | - | - | - |
| 1777490127 | 19.44° C | 58% | 1014.7 hPa | - | - | - | - |
| 1777488327 | 19.44° C | 56% | 1015.3 hPa | - | - | - | - |
| 1777486527 | 19.44° C | 55% | 1014.9 hPa | - | - | - | - |
| 1777484727 | 19.44° C | 53% | 1014.2 hPa | - | - | - | - |
| 1777482927 | 20° C | 51% | 1014.8 hPa | - | - | - | - |
| 1777481127 | 20.56° C | 48% | 1015.3 hPa | - | - | - | - |
| 1777479327 | 21.11° C | 49% | 1014.5 hPa | - | - | - | - |
| 1777477527 | 21.67° C | 49% | 1013.6 hPa | - | - | - | - |
| 1777475727 | 22.22° C | 49% | 1012.5 hPa | - | - | - | - |
| 1777473927 | 22.22° C | 48% | 1012.9 hPa | - | - | - | - |
| 1777472127 | 22.78° C | 50% | 1012.8 hPa | - | - | - | - |
| 1777470327 | 21.67° C | 52% | 1013 hPa | - | - | - | - |
* Rain since midnight (hover to see other rain measurements)
** Current wind speed in m/s (hover to see current wind gust speed)